This is the latest recevied weather packets stored in our database for station/object KI5MKI. If no packets are shown the sender has not sent any weather packets the latest 10 day(s).
| Time | Temp. | Humidity | Pressure | Rain* | Wind** | Luminosity | Snow |
|---|---|---|---|---|---|---|---|
| 1777761981 | 24.44° C | 35% | 1019.3 hPa | 0 mm | - | 360 W/m² | - |
| 1777761677 | 24.44° C | 36% | 1019.3 hPa | 0 mm | - | 389 W/m² | - |
| 1777761375 | 24.44° C | 35% | 1019.5 hPa | 0 mm | - | 410 W/m² | - |
| 1777761074 | 24.44° C | 36% | 1019.3 hPa | 0 mm | - | 426 W/m² | - |
| 1777760770 | 25° C | 34% | 1019.5 hPa | 0 mm | - | 447 W/m² | - |
| 1777760467 | 24.44° C | 34% | 1019.4 hPa | 0 mm | - | 460 W/m² | - |
| 1777760162 | 23.89° C | 37% | 1019.5 hPa | 0 mm | - | 479 W/m² | - |
| 1777759860 | 23.89° C | 37% | 1019.5 hPa | 0 mm | - | 495 W/m² | - |
| 1777759555 | 23.89° C | 34% | 1019.7 hPa | 0 mm | - | 519 W/m² | - |
| 1777759252 | 24.44° C | 35% | 1019.5 hPa | 0 mm | - | 536 W/m² | - |
| 1777758949 | 24.44° C | 40% | 1019.8 hPa | 0 mm | - | 559 W/m² | - |
| 1777758646 | 23.89° C | 36% | 1019.7 hPa | 0 mm | - | 569 W/m² | - |
| 1777758343 | 24.44° C | 35% | 1019.6 hPa | 0 mm | - | 591 W/m² | - |
| 1777758041 | 24.44° C | 35% | 1019.7 hPa | 0 mm | - | 609 W/m² | - |
| 1777757737 | 25° C | 35% | 1019.6 hPa | 0 mm | - | 625 W/m² | - |
| 1777757435 | 24.44° C | 34% | 1019.8 hPa | 0 mm | - | 643 W/m² | - |
| 1777757134 | 25° C | 36% | 1019.8 hPa | 0 mm | - | 650 W/m² | - |
| 1777756831 | 24.44° C | 34% | 1019.7 hPa | 0 mm | - | 661 W/m² | - |
| 1777756526 | 23.89° C | 40% | 1019.9 hPa | 0 mm | - | 679 W/m² | - |
| 1777756224 | 23.89° C | 36% | 1020 hPa | 0 mm | - | 694 W/m² | - |
| 1777755921 | 23.89° C | 40% | 1019.9 hPa | 0 mm | - | 706 W/m² | - |
| 1777755618 | 23.89° C | 38% | 1020 hPa | 0 mm | - | 722 W/m² | - |
| 1777755314 | 23.89° C | 33% | 1020 hPa | 0 mm | - | 733 W/m² | - |
| 1777755012 | 23.89° C | 37% | 1020.2 hPa | 0 mm | - | 748 W/m² | - |
| 1777754708 | 24.44° C | 39% | 1020.1 hPa | 0 mm | - | 762 W/m² | - |
* Rain latest hour (hover to see other rain measurements)
** Current wind speed in m/s (hover to see current wind gust speed)